Location: Heilbronn
(49.1548°N, 9.2780°E)
Time: 13:24:01
(UTC+02:00)

ISS - Pass Details

Date: 13 January 2018
Orbit: 403 x 408 km, 51.6° (Epoch: 22 September)

Event Time Altitude Azimuth Distance (km) Brightness Sun altitude
Exits shadow 07:04:16 12° 253° (WSW) 1,421 -1.5 -11.0°
Maximum altitude 07:05:52 15° 223° (SW) 1,244 -1.6 -10.7°
Drops below altitude 10° 07:07:53 10° 186° (S) 1,514 -0.7 -10.4°
Sets 07:10:38 0° 162° (SSE) 2,377 0.7 -10.0°
